ONEWEB-0011 (44062 NORAD) Tracking and Keplerian Element Data

This shows tracking and keplerian element data for the satellite.

Feedback or suggestion? Click here.




ElementValue
Catalog44062
NameONEWEB-0011
Epoch Orbit175
Epoch Day304.91667824
Epoch Year2020
RAAN307.3195
Inclination87.9121
Eccentricity0.0001638
Argument of Perigee98.6812
Mean Anonmoly228.908
Mean Motion13.21793324
Decay Rate0.00046973
L11 44062U 19010F 20304.91667824 .00046973 00000-0 11317+0 0 9990
L22 44062 87.9121 307.3195 0001638 98.6812 228.9080 13.21793324 1753

Live tracking and technical data element details for ONEWEB-0011 (NORAD 44062). ONEWEB-0011 can be tracked NOW for your location showing map with azimuth and elevation plus other details from your city location.

Track the satellite on the map from your city or location and see movement details for azimuth, elevation, latitude, longitude, range, height, and movement on the map or in text.







IsCatalogInMostPopularTable: catalog: 44062, numindb: 854
Update: records affected: 1



GetName: 44062 ONEWEB-0011

Hit Count: updated at: Sat, 31 Oct 2020 14:23:47 GMT